Theta_e
312 312 312 312 313 313 313 314 314 315 316 318 319 321 325 328 328 329 329 329 329 329 329 328 332 335 337 339 340 341 343 341 340 340 340 338 338 339 338 341 342 341 340 340 342
312 313 312 312 313 313 313 314 314 315 315 317 318 320 325 328 328 329 330 329 329 329 330 332 333 335 339 340 341 341 341 340 338 338 339 338 338 338 341 342 342 340 342 342 342
312 313 313 313 313 313 313 314 314 315 315 316 318 320 324 327 329 331 329 329 329 329 328 329 332 334 337 338 340 339 340 339 337 338 338 339 338 339 340 342 340 338 340 341 342
313 313 313 313 313 313 313 314 315 315 315 316 317 319 323 326 334 331 331 330 329 329 328 330 332 334 334 335 336 340 338 340 340 338 339 340 340 341 342 343 342 340 342 343 343
313 313 313 313 313 313 315 318 317 316 315 316 317 318 322 327 332 331 332 330 329 328 329 331 333 333 334 333 335 338 338 341 340 339 340 340 341 342 343 343 341 341 342 343 344
313 313 313 313 313 313 319 319 318 320 318 316 317 318 323 330 330 331 331 331 330 330 330 332 333 332 333 333 335 337 339 341 341 342 341 341 342 342 344 345 342 341 341 342 342
313 313 314 314 313 314 319 318 318 320 321 316 317 318 322 330 329 332 331 330 330 330 332 332 332 332 331 333 336 339 341 340 341 341 342 341 343 344 344 344 342 341 341 341 341
313 314 314 314 313 316 319 318 321 321 320 317 317 318 327 327 329 330 330 330 330 331 330 331 330 331 331 333 337 340 339 340 342 341 341 341 345 345 343 345 344 342 341 341 342
314 314 314 314 313 317 318 318 319 320 318 318 318 321 328 328 329 329 329 330 331 330 330 330 330 332 331 334 338 338 337 337 339 342 343 342 343 343 341 341 342 343 343 342 341
315 315 314 314 314 317 319 318 320 320 319 319 318 322 326 329 328 329 329 329 331 331 331 332 333 334 334 335 337 336 336 337 337 343 342 341 342 342 342 340 340 341 342 342 341
314 315 315 314 314 316 319 319 321 322 321 322 322 324 326 325 328 329 329 330 331 332 334 333 334 335 333 334 334 335 335 335 340 343 343 342 342 341 340 340 341 342 341 342 343
314 315 315 314 314 315 315 319 316 317 321 320 320 320 322 323 328 329 328 331 332 334 333 334 335 333 332 333 334 334 335 336 339 342 342 342 341 340 339 341 341 340 341 342 341
312 314 315 314 314 315 315 316 315 317 322 321 321 321 323 324 329 330 329 331 332 333 334 334 334 331 332 333 334 335 335 336 338 343 341 341 342 341 340 340 339 339 342 340 340
311 312 314 314 316 314 317 315 315 319 326 325 322 322 322 326 329 328 329 330 331 332 332 333 332 331 332 333 333 335 335 337 339 340 340 341 339 341 340 341 339 339 339 339 340
310 311 312 312 313 314 314 315 318 319 330 326 322 322 324 328 329 328 328 329 331 332 331 333 331 332 332 333 333 335 336 339 340 340 342 342 340 343 341 341 341 340 340 339 340
310 310 312 312 314 315 315 316 320 331 331 326 323 325 326 328 328 328 328 329 329 331 331 331 330 330 332 335 333 337 339 340 340 339 340 343 340 340 340 340 338 339 339 338 338
310 310 311 312 315 317 319 322 333 335 331 324 324 326 327 328 329 329 330 331 331 331 332 332 332 331 331 336 337 338 341 340 340 339 337 342 341 341 339 339 337 338 336 338 338
310 311 312 313 317 319 320 329 338 332 331 328 324 326 328 328 329 329 330 331 331 331 332 332 332 331 332 333 336 339 340 339 339 338 336 342 339 343 340 340 340 338 337 339 339
310 311 312 317 318 320 323 329 334 332 329 328 325 326 326 327 327 329 329 330 331 331 333 332 332 331 332 334 335 339 338 338 340 340 337 338 339 340 339 340 339 338 339 341 340
310 310 314 320 319 321 324 323 331 328 326 328 328 327 328 326 326 327 329 329 330 330 330 332 333 331 334 335 335 336 337 339 340 338 339 337 336 340 339 339 339 339 340 339 338
309 314 318 320 321 324 324 324 323 323 325 330 332 334 334 332 327 328 328 328 329 329 329 331 333 332 332 334 334 337 338 339 340 338 338 337 338 339 340 342 342 340 339 339 337
308 317 315 321 326 324 323 324 321 325 327 330 331 333 335 334 331 328 328 330 329 329 331 331 336 334 332 336 336 337 338 339 340 341 338 339 336 341 342 342 341 340 340 338 335
312 314 312 321 327 327 325 324 324 326 329 331 332 332 336 338 338 335 329 328 333 331 334 334 336 334 335 338 337 338 339 339 341 342 337 339 338 341 340 341 340 340 339 337 334
313 318 319 323 324 328 326 324 327 329 329 329 332 334 337 339 340 338 335 335 335 332 329 333 341 335 332 333 332 336 336 336 338 337 334 335 337 343 343 343 342 340 337 334 332
312 319 323 324 325 327 327 326 326 331 330 330 334 336 338 336 337 338 337 336 336 332 335 340 340 338 334 335 335 333 333 335 336 335 337 334 338 341 343 344 341 338 335 333 332
318 320 321 325 325 326 323 328 326 331 333 333 336 337 338 338 342 340 341 337 337 338 342 341 340 338 337 337 335 334 334 335 336 337 337 338 340 341 341 341 340 336 334 332 332
311 316 321 321 326 327 327 328 328 330 332 332 334 338 340 338 335 337 338 338 338 341 343 344 342 341 336 339 337 336 335 336 335 336 338 340 341 342 343 341 337 335 334 333 333
Wind_Speed
18 18 17 17 16 15 13 11 9 8 7 7 7 6 5 6 6 6 4 3 2 2 3 3 1 2 2 1 1 2 5 1 1 3 5 5 6 3 2 8 5 6 9 10 14
18 18 19 17 17 16 14 12 10 10 8 8 7 6 6 7 6 6 4 4 4 1 1 1 2 3 3 1 2 6 4 7 7 6 8 3 7 10 5 6 7 11 10 12 13
19 18 18 20 17 18 15 14 11 10 8 8 8 7 6 4 5 2 1 3 4 1 2 4 3 4 4 1 1 1 9 8 3 6 6 4 2 2 3 4 7 12 12 12 13
20 21 19 19 18 18 16 13 12 10 8 8 8 7 6 2 2 2 0 1 1 0 2 4 3 5 5 4 1 8 6 9 7 3 1 2 3 5 6 6 3 4 11 12 11
22 21 21 18 20 18 14 13 13 10 7 7 8 6 5 5 2 1 2 2 1 1 3 4 5 8 7 6 4 7 4 4 5 3 1 1 3 4 6 4 4 8 11 10 8
22 22 21 20 19 17 13 14 11 8 6 7 8 7 5 10 5 3 1 2 0 3 4 3 7 10 8 5 6 5 3 2 2 5 1 5 2 5 5 4 5 5 6 6 5
21 22 21 20 19 15 13 16 11 8 4 7 8 8 7 2 7 4 3 1 4 3 4 4 6 7 6 2 1 2 5 3 3 4 0 3 7 4 2 2 3 4 3 2 3
22 21 21 20 20 12 13 15 6 2 2 5 7 7 5 10 7 5 2 3 2 3 6 8 7 5 5 2 4 5 4 5 6 3 3 5 4 5 3 2 2 2 3 2 3
21 22 22 21 20 11 13 10 2 8 1 5 5 5 6 7 6 6 3 4 4 4 5 6 3 6 5 7 9 5 5 4 2 3 2 4 7 5 5 5 2 2 2 2 2
21 22 22 21 20 12 12 7 2 5 4 3 4 5 6 7 5 8 7 3 6 5 6 5 6 10 1 6 4 7 5 1 6 4 3 3 4 5 5 2 0 1 2 4 2
21 21 21 21 16 12 12 5 4 2 4 4 2 5 3 2 9 8 6 3 6 7 9 1 10 6 9 7 7 5 7 8 1 2 6 4 4 3 3 3 6 4 3 4 3
21 21 21 20 12 13 11 5 6 5 6 5 8 10 7 2 5 9 6 7 10 11 4 8 8 4 7 3 5 5 9 9 3 2 6 5 5 4 4 6 4 1 4 1 3
21 21 20 20 9 15 5 5 9 10 7 4 7 6 6 7 5 9 10 6 9 8 10 10 6 1 5 7 6 9 8 11 8 1 2 9 6 9 8 6 4 3 4 2 2
21 21 20 19 8 15 2 9 11 5 5 8 8 6 9 6 7 7 9 8 7 10 4 8 2 5 10 8 6 13 6 6 4 8 7 7 4 9 4 1 2 1 3 2 1
20 20 19 17 15 9 7 10 10 2 6 4 7 2 10 13 2 10 9 8 13 6 6 3 5 7 11 5 6 7 5 4 4 5 7 2 10 12 5 6 4 2 4 3 3
19 19 18 18 14 6 8 8 0 6 2 5 6 10 13 15 9 3 10 8 3 8 7 12 2 6 3 5 1 5 4 5 4 4 9 6 6 11 9 7 7 8 8 6 6
19 17 17 15 6 5 6 1 5 5 3 7 9 10 15 11 13 7 9 12 11 9 11 9 8 4 4 4 5 4 8 3 3 2 7 3 5 7 7 4 4 5 7 8 8
18 16 14 10 5 3 6 5 6 2 2 4 5 10 11 10 13 12 9 10 8 9 3 6 9 9 3 5 7 5 5 7 10 6 2 5 3 7 6 5 3 3 4 8 10
17 14 11 7 4 3 5 7 2 2 2 1 8 11 8 9 5 12 14 12 9 10 6 3 3 7 2 2 5 5 7 4 6 4 10 1 5 5 8 7 6 7 7 10 11
16 14 5 5 4 3 5 4 0 2 3 4 6 4 8 10 11 8 12 11 15 13 11 3 9 3 5 4 3 6 2 5 7 6 8 2 5 6 9 7 4 6 9 10 9
12 6 6 4 2 6 6 2 3 1 3 3 1 6 4 6 11 8 4 6 5 5 13 10 6 4 6 6 6 4 7 4 5 5 9 7 5 6 8 6 5 7 7 7 8
6 5 5 3 7 2 4 2 4 4 2 2 2 1 1 5 7 7 6 0 4 8 8 9 4 7 3 4 2 4 4 4 7 2 4 8 10 5 7 5 5 6 5 6 7
4 5 4 5 5 6 2 3 4 4 2 1 2 2 1 3 4 4 3 3 4 8 6 8 6 7 9 10 6 6 4 1 3 4 11 9 3 4 9 7 5 4 3 3 7
4 3 5 5 1 4 3 2 3 3 4 4 2 2 4 4 3 2 4 3 2 7 3 7 3 8 9 10 6 4 7 5 6 7 9 10 4 7 9 8 6 3 1 6 7
4 2 2 4 6 5 4 1 4 2 2 2 4 2 3 4 4 3 2 6 5 8 4 4 6 6 5 4 6 7 7 6 9 11 9 14 10 4 9 8 6 2 1 4 6
3 3 3 1 1 5 4 5 4 1 3 3 1 6 4 4 3 1 5 1 2 7 5 4 4 5 7 5 7 9 9 9 11 12 12 12 12 3 8 7 7 3 2 4 6
6 3 2 4 5 5 6 4 3 3 2 2 6 6 6 5 5 5 3 6 5 4 6 4 3 5 10 2 6 10 13 11 9 9 10 11 8 10 10 9 6 3 3 4 5
Wind_Direction
358 356 354 352 349 342 334 326 315 302 287 274 276 286 285 298 312 308 303 243 230 308 337 350 331 234 231 233 235 318 262 50 42 268 56 154 187 168 104 134 120 93 75 109 154
355 352 350 351 345 340 331 323 313 301 286 271 263 267 273 289 318 278 263 239 226 274 1 188 289 221 226 213 223 275 298 21 357 341 323 170 230 152 168 154 130 110 100 129 156
354 354 348 346 344 336 332 322 313 302 289 266 253 251 262 291 282 103 228 219 215 243 278 281 291 272 280 235 169 48 359 356 4 350 323 338 223 102 356 183 110 125 128 147 165
354 353 352 342 344 334 333 323 314 305 284 266 248 242 246 239 230 113 145 235 180 179 273 305 320 284 282 316 345 282 16 349 0 0 312 127 107 107 70 72 67 122 144 153 173
354 354 349 346 338 334 331 325 320 314 281 250 237 230 226 232 211 222 232 233 126 312 263 306 287 323 307 327 289 261 38 0 44 106 67 112 88 68 82 59 92 128 147 171 187
354 354 350 346 336 336 329 327 318 318 281 232 225 211 206 232 199 193 208 243 298 293 299 311 324 321 293 309 277 2 353 50 59 67 96 244 119 239 77 46 118 136 158 178 208
353 354 351 345 338 335 329 337 324 306 260 216 213 206 222 230 183 169 149 312 283 281 300 294 309 304 336 268 343 186 242 236 166 3 179 290 223 66 61 83 103 150 154 205 261
351 354 351 344 341 334 333 341 340 341 191 195 202 196 221 220 200 182 246 268 267 304 306 317 321 287 309 284 193 247 260 280 85 356 124 235 79 127 63 98 81 119 166 241 301
347 351 352 347 343 342 342 342 53 41 94 172 176 178 201 208 204 203 194 217 211 269 296 322 299 286 219 246 198 190 12 357 128 39 323 249 0 134 109 76 341 257 201 180 169
344 348 352 349 346 351 349 336 297 328 38 133 171 199 214 174 189 194 212 214 220 227 242 253 259 265 320 286 349 37 349 67 324 57 276 314 36 121 173 329 64 99 199 201 212
340 344 350 350 349 347 1 9 308 192 288 269 143 276 104 273 196 205 217 219 200 228 258 141 283 18 0 0 353 326 303 301 63 43 297 5 316 108 162 213 176 207 200 215 268
337 339 346 350 350 354 351 51 43 318 297 251 245 257 257 288 208 204 204 221 208 240 207 237 242 24 335 338 309 308 303 277 193 152 288 3 335 65 140 120 145 197 194 146 136
334 335 341 350 352 348 2 20 353 335 257 214 215 221 207 193 210 199 201 224 231 231 244 281 339 0 295 289 269 275 311 310 314 69 186 306 168 120 125 133 132 130 175 152 51
331 332 338 347 3 345 343 328 334 316 256 146 200 206 191 184 222 205 208 245 219 267 256 271 66 258 287 273 305 294 358 276 260 274 352 2 340 111 150 96 185 137 139 57 20
326 328 332 336 332 336 288 312 324 211 206 134 155 199 180 198 187 189 195 218 256 232 248 272 269 266 277 7 314 330 308 240 220 265 294 150 283 104 158 137 80 83 72 55 4
320 325 324 327 335 322 309 316 213 231 143 137 150 179 176 193 184 156 195 212 278 268 242 273 291 267 4 31 305 133 160 196 198 275 265 78 299 107 79 47 68 65 61 53 29
316 320 315 316 296 325 333 243 234 267 161 145 162 181 191 187 199 213 189 200 222 216 218 199 223 147 206 168 158 249 219 223 258 302 290 123 252 47 78 54 19 37 50 39 14
314 315 310 302 271 312 346 227 254 83 77 121 168 170 188 177 216 205 223 215 212 250 280 259 169 177 154 302 338 241 298 307 304 292 0 153 264 96 78 68 112 101 50 32 12
316 319 306 285 255 305 276 236 35 69 32 188 160 183 166 189 251 213 224 235 216 207 245 224 228 118 47 160 288 121 246 16 288 211 267 48 148 137 140 114 118 81 51 39 39
323 321 259 280 230 300 252 283 1 7 324 215 188 236 173 174 197 206 196 220 234 227 245 265 275 104 121 183 115 289 68 231 201 276 289 142 240 121 174 136 102 68 63 65 46
320 295 237 250 263 240 254 25 291 318 289 251 110 152 122 169 207 196 192 178 216 218 223 241 255 199 203 206 336 180 209 249 298 292 308 293 71 80 117 103 94 91 84 67 40
290 243 240 211 238 231 252 349 331 285 243 215 273 307 169 162 189 208 222 285 161 169 183 199 249 249 292 81 297 293 327 275 284 162 242 300 296 89 126 124 125 114 93 56 31
277 267 250 187 241 203 180 252 262 288 317 276 186 32 280 184 197 226 192 165 186 200 180 171 210 244 201 184 182 238 170 256 285 280 272 294 29 127 134 146 152 132 103 57 3
281 240 198 206 258 290 230 212 245 238 274 302 291 234 210 196 167 173 183 139 180 202 234 190 207 260 297 350 329 210 211 218 242 278 318 267 305 149 165 169 165 156 11 12 358
239 199 278 192 187 231 252 243 246 210 230 313 188 47 281 234 217 215 199 147 150 159 148 222 239 233 274 263 241 277 268 216 248 280 276 303 316 155 185 181 172 165 352 347 352
253 251 211 216 240 220 175 205 240 230 281 134 319 330 245 232 345 83 339 249 146 182 185 190 243 262 255 229 240 251 263 261 272 281 281 274 273 151 170 178 187 190 255 322 347
241 226 232 149 189 212 199 189 184 317 152 256 347 291 192 69 346 332 292 289 285 265 189 204 176 233 266 172 254 251 260 285 276 275 265 269 334 154 178 202 199 204 256 318 329